When you browse on this site, cookies collect data to enhance your experience and personalize the content and advertising you see.
Visit our Privacy Policy to learn more. By continuing to use the site, you agree to this use of cookies and data.
  • Em Portugal
  • Lista de países
  • Para 7 dias
  • Temperatura da água
  • Mapa do tempo
  • Widgets de tempo
  • user-avatar
    Iniciar Sessão

    Previsão horária em Barisal

    Hoje, 24 Outubro, Quinta-feira

    Tempo Temperatura Precipitação Vento Pressão Humidade
    00:00 +27°C° 0 mm 2 m/s 757 mmHg 85%
    01:00 +26°C° 0 mm 3 m/s 756 mmHg 84%
    02:00 +26°C° 0 mm 3 m/s 756 mmHg 83%
    03:00 +26°C° 0 mm 3 m/s 756 mmHg 82%
    04:00 +25°C° 0 mm 4 m/s 756 mmHg 84%
    05:00 +25°C° 0 mm 4 m/s 757 mmHg 85%
    06:00 +25°C° 0 mm 3 m/s 757 mmHg 94%
    07:00 +26°C° 0 mm 4 m/s 757 mmHg 90%
    08:00 +26°C° 0 mm 4 m/s 758 mmHg 87%
    09:00 +26°C° 0 mm 5 m/s 758 mmHg 83%
    10:00 +27°C° 0 mm 5 m/s 758 mmHg 80%
    11:00 +28°C° 0 mm 5 m/s 757 mmHg 76%
    12:00 +28°C° 0 mm 5 m/s 757 mmHg 73%
    13:00 +28°C° 0 mm 5 m/s 756 mmHg 74%
    14:00 +28°C° 0 mm 5 m/s 756 mmHg 75%
    15:00 +28°C° 0 mm 5 m/s 756 mmHg 76%
    16:00 +27°C° 0 mm 5 m/s 756 mmHg 78%
    17:00 +26°C° 0 mm 5 m/s 756 mmHg 81%
    18:00 +25°C° 0 mm 5 m/s 756 mmHg 83%
    19:00 +25°C° 0 mm 5 m/s 757 mmHg 84%
    20:00 +25°C° 0 mm 4 m/s 758 mmHg 85%
    21:00 +23°C° 0 mm 4 m/s 758 mmHg 86%
    22:00 +23°C° 0 mm 4 m/s 758 mmHg 87%
    23:00 +23°C° 0 mm 4 m/s 758 mmHg 88%

    Amanhã, 25 Outubro, Sexta-feira

    Tempo Temperatura Precipitação Vento Pressão Humidade
    00:00 +24°C° 0 mm 3 m/s 757 mmHg 89%
    01:00 +24°C° 0 mm 3 m/s 757 mmHg 90%
    02:00 +24°C° 0 mm 3 m/s 757 mmHg 91%
    03:00 +24°C° 0 mm 3 m/s 756 mmHg 91%
    04:00 +24°C° 0 mm 3 m/s 756 mmHg 91%
    05:00 +24°C° 0 mm 3 m/s 756 mmHg 91%
    06:00 +24°C° 0 mm 3 m/s 756 mmHg 90%
    07:00 +25°C° 0 mm 3 m/s 757 mmHg 85%
    08:00 +27°C° 0 mm 3 m/s 757 mmHg 80%
    09:00 +28°C° 0 mm 4 m/s 757 mmHg 75%
    10:00 +29°C° 0 mm 3 m/s 757 mmHg 73%
    11:00 +30°C° 0 mm 3 m/s 757 mmHg 70%
    12:00 +31°C° 0 mm 2 m/s 756 mmHg 68%
    13:00 +31°C° 0.8 mm 3 m/s 756 mmHg 71%
    14:00 +30°C° 0.8 mm 3 m/s 755 mmHg 74%
    15:00 +30°C° 0.8 mm 3 m/s 755 mmHg 77%
    16:00 +29°C° 1.7 mm 3 m/s 755 mmHg 81%
    17:00 +28°C° 1.7 mm 3 m/s 755 mmHg 86%
    18:00 +27°C° 1.7 mm 3 m/s 755 mmHg 91%
    19:00 +27°C° 1.7 mm 2 m/s 756 mmHg 92%
    20:00 +26°C° 1.7 mm 2 m/s 756 mmHg 94%
    21:00 +26°C° 1.7 mm 2 m/s 757 mmHg 95%
    22:00 +26°C° 0.6 mm 2 m/s 757 mmHg 96%
    23:00 +25°C° 0.6 mm 1 m/s 757 mmHg 97%

    Depois de amanhã, 26 Outubro, Sábado

    Tempo Temperatura Precipitação Vento Pressão Humidade
    00:00 +25°C° 0.6 mm 1 m/s 757 mmHg 97%
    01:00 +25°C° 0.2 mm 1 m/s 757 mmHg 97%
    02:00 +25°C° 0.2 mm 1 m/s 756 mmHg 97%
    03:00 +25°C° 0.2 mm 1 m/s 756 mmHg 97%
    04:00 +25°C° 1.2 mm 1 m/s 757 mmHg 97%
    05:00 +25°C° 1.2 mm 1 m/s 757 mmHg 97%
    06:00 +24°C° 1.2 mm 2 m/s 757 mmHg 97%
    07:00 +26°C° 0.7 mm 2 m/s 758 mmHg 94%
    08:00 +27°C° 0.7 mm 2 m/s 758 mmHg 90%
    09:00 +28°C° 0.7 mm 1 m/s 759 mmHg 86%
    10:00 +29°C° 1.1 mm 2 m/s 759 mmHg 84%
    11:00 +29°C° 1.1 mm 2 m/s 758 mmHg 81%
    12:00 +30°C° 1.1 mm 2 m/s 758 mmHg 78%
    13:00 +30°C° 1.3 mm 2 m/s 757 mmHg 78%
    14:00 +30°C° 1.3 mm 2 m/s 757 mmHg 78%
    15:00 +30°C° 1.3 mm 2 m/s 757 mmHg 78%
    16:00 +29°C° 1.2 mm 2 m/s 757 mmHg 82%
    17:00 +28°C° 1.2 mm 2 m/s 757 mmHg 86%
    18:00 +27°C° 1.2 mm 2 m/s 757 mmHg 91%
    19:00 +27°C° 0.1 mm 2 m/s 757 mmHg 91%
    20:00 +26°C° 0.1 mm 2 m/s 757 mmHg 92%
    21:00 +26°C° 0.1 mm 2 m/s 758 mmHg 92%
    22:00 +26°C° 0 mm 2 m/s 758 mmHg 93%
    23:00 +25°C° 0 mm 2 m/s 758 mmHg 94%

    , 27 Outubro, Domingo

    Tempo Temperatura Precipitação Vento Pressão Humidade
    00:00 +25°C° 0 mm 2 m/s 758 mmHg 94%
    01:00 +25°C° 0 mm 2 m/s 757 mmHg 94%
    02:00 +25°C° 0 mm 2 m/s 757 mmHg 94%
    03:00 +24°C° 0 mm 2 m/s 757 mmHg 95%
    04:00 +24°C° 0 mm 2 m/s 757 mmHg 95%
    05:00 +24°C° 0 mm 2 m/s 757 mmHg 95%
    06:00 +24°C° 0 mm 2 m/s 758 mmHg 95%
    07:00 +25°C° 0 mm 2 m/s 758 mmHg 91%
    08:00 +27°C° 0 mm 2 m/s 759 mmHg 86%
    09:00 +28°C° 0 mm 2 m/s 759 mmHg 81%
    10:00 +29°C° 0.4 mm 2 m/s 759 mmHg 79%
    11:00 +29°C° 0.4 mm 2 m/s 758 mmHg 77%
    12:00 +30°C° 0.4 mm 2 m/s 758 mmHg 75%
    13:00 +30°C° 1.1 mm 2 m/s 757 mmHg 74%
    14:00 +31°C° 1.1 mm 2 m/s 757 mmHg 74%
    15:00 +31°C° 1.1 mm 2 m/s 756 mmHg 73%
    16:00 +30°C° 0.6 mm 2 m/s 756 mmHg 78%
    17:00 +28°C° 0.6 mm 2 m/s 756 mmHg 83%
    18:00 +27°C° 0.6 mm 2 m/s 756 mmHg 88%
    19:00 +27°C° 0 mm 2 m/s 756 mmHg 90%
    20:00 +26°C° 0 mm 2 m/s 757 mmHg 91%
    21:00 +26°C° 0 mm 2 m/s 757 mmHg 92%
    22:00 +26°C° 0 mm 2 m/s 757 mmHg 92%
    23:00 +25°C° 0 mm 2 m/s 757 mmHg 92%

    27 Outubro, Domingo

    Tempo Temperatura Precipitação Vento Pressão Humidade
    00:00 +25°C° 0 mm 2 m/s 758 mmHg 94%
    01:00 +25°C° 0 mm 2 m/s 757 mmHg 94%
    02:00 +25°C° 0 mm 2 m/s 757 mmHg 94%
    03:00 +24°C° 0 mm 2 m/s 757 mmHg 95%
    04:00 +24°C° 0 mm 2 m/s 757 mmHg 95%
    05:00 +24°C° 0 mm 2 m/s 757 mmHg 95%
    06:00 +24°C° 0 mm 2 m/s 758 mmHg 95%
    07:00 +25°C° 0 mm 2 m/s 758 mmHg 91%
    08:00 +27°C° 0 mm 2 m/s 759 mmHg 86%
    09:00 +28°C° 0 mm 2 m/s 759 mmHg 81%
    10:00 +29°C° 0.4 mm 2 m/s 759 mmHg 79%
    11:00 +29°C° 0.4 mm 2 m/s 758 mmHg 77%
    12:00 +30°C° 0.4 mm 2 m/s 758 mmHg 75%
    13:00 +30°C° 1.1 mm 2 m/s 757 mmHg 74%
    14:00 +31°C° 1.1 mm 2 m/s 757 mmHg 74%
    15:00 +31°C° 1.1 mm 2 m/s 756 mmHg 73%
    16:00 +30°C° 0.6 mm 2 m/s 756 mmHg 78%
    17:00 +28°C° 0.6 mm 2 m/s 756 mmHg 83%
    18:00 +27°C° 0.6 mm 2 m/s 756 mmHg 88%
    19:00 +27°C° 0 mm 2 m/s 756 mmHg 90%
    20:00 +26°C° 0 mm 2 m/s 757 mmHg 91%
    21:00 +26°C° 0 mm 2 m/s 757 mmHg 92%
    22:00 +26°C° 0 mm 2 m/s 757 mmHg 92%
    23:00 +25°C° 0 mm 2 m/s 757 mmHg 92%

    28 Outubro, Segunda-feira

    Tempo Temperatura Precipitação Vento Pressão Humidade
    00:00 +25°C° 0 mm 2 m/s 757 mmHg 92%
    01:00 +25°C° 0 mm 3 m/s 757 mmHg 92%
    02:00 +25°C° 0 mm 3 m/s 757 mmHg 92%
    03:00 +24°C° 0 mm 3 m/s 757 mmHg 93%
    04:00 +24°C° 0 mm 3 m/s 757 mmHg 93%
    05:00 +24°C° 0 mm 3 m/s 757 mmHg 94%
    06:00 +24°C° 0 mm 2 m/s 757 mmHg 94%
    07:00 +25°C° 0 mm 3 m/s 758 mmHg 90%
    08:00 +27°C° 0 mm 3 m/s 759 mmHg 85%
    09:00 +28°C° 0 mm 4 m/s 759 mmHg 81%
    10:00 +29°C° 0 mm 4 m/s 759 mmHg 78%
    11:00 +29°C° 0 mm 4 m/s 758 mmHg 75%
    12:00 +30°C° 0 mm 4 m/s 758 mmHg 72%
    13:00 +30°C° 0 mm 3 m/s 757 mmHg 73%
    14:00 +30°C° 0 mm 3 m/s 757 mmHg 74%
    15:00 +29°C° 0 mm 3 m/s 756 mmHg 75%
    16:00 +29°C° 0 mm 3 m/s 756 mmHg 77%
    17:00 +28°C° 0 mm 2 m/s 756 mmHg 79%
    18:00 +27°C° 0 mm 2 m/s 756 mmHg 81%
    19:00 +26°C° 0 mm 2 m/s 757 mmHg 81%
    20:00 +25°C° 0 mm 2 m/s 757 mmHg 81%
    21:00 +25°C° 0 mm 2 m/s 758 mmHg 81%
    22:00 +24°C° 0 mm 2 m/s 758 mmHg 81%
    23:00 +24°C° 0 mm 2 m/s 758 mmHg 81%

    29 Outubro, Terça-feira

    Tempo Temperatura Precipitação Vento Pressão Humidade
    00:00 +24°C° 0 mm 2 m/s 758 mmHg 81%
    01:00 +23°C° 0 mm 2 m/s 758 mmHg 81%
    02:00 +23°C° 0 mm 2 m/s 757 mmHg 82%
    03:00 +23°C° 0 mm 2 m/s 757 mmHg 82%
    04:00 +23°C° 0 mm 2 m/s 758 mmHg 83%
    05:00 +23°C° 0 mm 2 m/s 758 mmHg 85%
    06:00 +23°C° 0 mm 2 m/s 758 mmHg 86%
    07:00 +24°C° 0 mm 2 m/s 759 mmHg 82%
    08:00 +26°C° 0 mm 3 m/s 759 mmHg 77%
    09:00 +28°C° 0 mm 3 m/s 760 mmHg 73%
    10:00 +29°C° 0 mm 3 m/s 759 mmHg 68%
    11:00 +30°C° 0 mm 3 m/s 759 mmHg 63%
    12:00 +31°C° 0 mm 2 m/s 758 mmHg 58%
    13:00 +31°C° 0 mm 2 m/s 757 mmHg 57%
    14:00 +31°C° 0 mm 2 m/s 757 mmHg 55%
    15:00 +31°C° 0 mm 2 m/s 756 mmHg 54%
    16:00 +30°C° 0 mm 2 m/s 756 mmHg 59%
    17:00 +28°C° 0 mm 2 m/s 756 mmHg 64%
    18:00 +26°C° 0 mm 2 m/s 756 mmHg 70%
    19:00 +26°C° 0 mm 2 m/s 757 mmHg 73%
    20:00 +25°C° 0 mm 2 m/s 757 mmHg 76%
    21:00 +25°C° 0 mm 2 m/s 757 mmHg 79%
    22:00 +24°C° 0 mm 2 m/s 757 mmHg 80%
    23:00 +24°C° 0 mm 2 m/s 757 mmHg 80%
    Mostrar mais